Hourly Data Report for October 09, 2016

All times are specified in Local Standard Time (LST). Add 1 hour to adjust for Daylight Saving Time where and when it is observed.

TORONTO INTL A
ONTARIO

43°40'36.000" N
79°37'50.000" W
173.40 m
6158731
71624
YYZ

Download Data

Hourly Data (October 2016)
Hourly Data Report for October 9, 2016
Temp Definition
°C
Dew Point Temp Definition
°C
Rel Hum Definition
%
Wind Dir Definition
10's deg

Wind Spd Definition
km/h
Visibility Definition
km
Stn Press Definition
kPa
Hmdx Definition


Wind Chill Definition


Weather Definition


TIME
00:00 Legend Double Dagger 7.8 4.4 79 28 13 24.1 100.08     LegendNANA
01:00 Legend Double Dagger 7.8 4.4 79 29 14 24.1 100.14     Mainly Clear
02:00 Legend Double Dagger 7.0 4.0 81 26 9 24.1 100.14     LegendNANA
03:00 Legend Double Dagger 6.5 4.0 84 28 10 24.1 100.17     LegendNANA
04:00 Legend Double Dagger 7.0 4.7 85 28 12 24.1 100.18     Mainly Clear
05:00 Legend Double Dagger 7.6 5.3 85 28 10 24.1 100.25     LegendNANA
06:00 Legend Double Dagger 8.9 5.8 81 31 17 24.1 100.30     LegendNANA
07:00 Legend Double Dagger 8.8 5.7 81 32 17 24.1 100.39     Mostly Cloudy
08:00 Legend Double Dagger 9.7 5.9 77 36 12 24.1 100.43     LegendNANA
09:00 Legend Double Dagger 10.2 5.0 70 33 13 24.1 100.46     LegendNANA
10:00 Legend Double Dagger 11.2 4.9 65 36 16 24.1 100.48     Rain Showers
11:00 Legend Double Dagger 12.0 3.6 56 34 28 24.1 100.47     LegendNANA
12:00 Legend Double Dagger 11.9 3.7 57 34 24 24.1 100.47     LegendNANA
13:00 Legend Double Dagger 12.6 1.6 47 33 37 24.1 100.44     Mainly Clear
14:00 Legend Double Dagger 12.6 1.0 45 36 34 24.1 100.45     LegendNANA
15:00 Legend Double Dagger 11.9 0.4 45 34 28 24.1 100.49     LegendNANA
16:00 Legend Double Dagger 11.3 -0.5 44 34 32 24.1 100.57     Mainly Clear
17:00 Legend Double Dagger 10.6 1.2 52 33 27 24.1 100.62     LegendNANA
18:00 Legend Double Dagger 9.2 0.9 56 33 28 24.1 100.67     LegendNANA
19:00 Legend Double Dagger 8.1 1.1 61 35 22 24.1 100.71     Clear
20:00 Legend Double Dagger 7.5 1.2 64 35 19 24.1 100.75     LegendNANA
21:00 Legend Double Dagger 7.1 1.2 66 34 15 24.1 100.76     LegendNANA
22:00 Legend Double Dagger 6.7 1.2 68 34 18 24.1 100.79     Clear
23:00 Legend Double Dagger 5.8 1.2 72 34 17 24.1 100.82     LegendNANA

Notes on Data Quality.

Legend

  • E = Estimated
  • M = Missing
  • NA = Not Available
  • ‡ = Partner data that is not subject to review by the National Climate Archives
Date modified: